DECAYED

FENGYUN 1C DEB, 30612 (Decayed)

Orbit data source: Space-Track

FENGYUN 1C DEB, 30612 was space debris in LEO originally from a launch on Mon, 10 May 1999 UTC launched from the Taiyaun Space Center, China (TSC). Fengyun 1C debris stems from the Chinese weather satellite Fengyun-1C, which was intentionally destroyed by a Chinese anti-satellite missile in 2007. This event dramatically increased the amount of space debris, with thousands of trackable fragments posing hazards to satellites and human spaceflight. The Fengyun 1C debris cloud has become a focal point in discussions about space sustainability and the need for international regulations to prevent the creation of new debris.

Not visible in the next 10 days
Identifier
30612, 1999-025AMT
Orbit
Decayed
Country
Flag of CNCN / PRC
Related business
Manufacturer
Unknown
Mission
Decayed spacecraft
Bus & Motor
Unknown
Mass
Unknown
Launch date (UTC)
1999-05-10 (27 years ago)
Launch vehicle
Unknown
Launch site
Taiyaun Space Center, China (TSC)
Object type
Payload
Rocket body
Debris
Shape & HBR
Unknown shape, 0.1 m
Radar Cross Section
Medium (>0.1 m² and <1 m²)

Expand to show TLE details & history
Last TLE update: 4 months ago

TLE from 4 months ago
0 FENGYUN 1C DEB
1 30612U 99025AMT 26080.58592896  .08746697  34700-5  53356-2 0  9995
2 30612  99.0504 100.1402 0009555 214.2132 270.0644 16.18063042 17886
Epoch: 2026-03-21T14:03Z
TLE epoch observation values (Epoch: 2026-03-21T14:03:44.262Z)
Latitude
54.90504°
Longitude
-96.87289°
Altitude
233.932 km
Speed
7.772 km/s
True Right ascension
19h 32m 39s
True Declination
54° 43' 49"
Sunlit
Object was in daylight at epoch
Visualization orbit readout
Latitude
Unknown
Longitude
Unknown
Altitude
Unknown
Speed
Unknown
Apparent Right ascension
Unknown
Apparent Declination
Unknown
Sunlit
N/A
Visualization observer readout
Local Sidereal Time
10:46:26
Azimuth
Unknown
Elevation
Unknown
Doppler factor
Unknown
Orbital elements
Apogee altitude
228.04 km
Perigee altitude
215.428 km
Semi-major axis
6,599.871 km
Eccentricity
0.00096
Inclination
99.0504°
RAAN
100.1402°
Arg. of periapsis
214.2132°
True anomaly
269.95491°
Mean anomaly
270.0644°
Eccentric anomaly
270.00965°
Mean motion
4.048 °/min
Orbital period
88.93 mins
BSTAR
0.0053356
Loading maneuver chart data...
Computing Atmospheric mass density...
Loading historical data...
Loading historical data...
Loading historical data...
Loading historical data...
Loading historical data...
Loading historical data...
Loading historical data...

Documentation

Showing up to 5 results
|